Tkibuli

Georgia     42˚21′08″N   42˚59′47″E
temp.,
°C
wind,
m/s
gust,
m/s
humid.,
%
clouds,
%
prec.,
mm/h
press.,
hPa
HPBL,
m
28 november, sat
sat2801:00+5˚e1019560 0.0 1031725
04:00+5˚e1119570 0.0 1030721
07:00+5˚e1019550 0.0 1029652
10:00+6˚e1018510 0.0 1028717
13:00+10˚e1117400 0.0 1025798
16:00+11˚e1117360 0.0 1025825
19:00+8˚e917450 0.0 1027633
22:00+7˚e917470 0.0 1027620
29 november, sun
sun2901:00+6˚e816450 0.0 1027538
04:00+5˚e7154423 0.0 1027480
07:00+5˚ene7144424 0.0 1026410
10:00+7˚e7133912 0.0 1026495
13:00+12˚e813320 0.0 1023661
16:00+12˚e713340 0.0 1022684
19:00+8˚ene5114130 0.0 1024285
22:00+8˚e5114565 0.0 1024323
30 november, mon
mon3001:00+8˚e7165181 0.0 1024650
04:00+8˚e6135956 0.0 1024447
07:00+7˚e6136358 0.0 1023449
10:00+9˚e7135855 0.0 1022693
13:00+13˚e913480 0.0 1020927
16:00+13˚e8134819 0.0 1019903
19:00+9˚e816570 0.0 1020689
22:00+9˚e917610 0.0 1021713
1 december, tue
tue101:00+8˚e8156177 0.0 1021718
04:00+7˚e8156381 0.0 1021645
07:00+7˚e8146456 0.0 1021590
10:00+8˚e8145760 0.0 1022754
13:00+11˚e812490 0.0 1020778
16:00+12˚e711470 0.0 1020667
19:00+8˚e712600 0.0 1022379
22:00+7˚ene612626 0.0 1023376
2 december, wed
wed201:00+6˚ene7126411 0.0 1024383
04:00+6˚ene7136153 0.0 1024408
07:00+6˚ene71257100 0.0 1024376
10:00+7˚ene6115193 0.0 1024439
13:00+12˚e693913 0.0 1022587
16:00+12˚e583930 0.0 1021488
19:00+8˚ene485247 0.0 1023190
22:00+7˚ene495223 0.0 1024204